Regional Weather Roundup
Issued by NWS

Home | Current Version | Previous Version | Graphics & Text | Print | Product List | Glossary On
Versions: 1 2 3 4 5 6 7 8 9 10 11 12 13 14 15 16 17 18 19 20 21 22 23 24 25 26 27 28 29 30 31 32 33 34 35 36 37 38 39 40 41 42 43 44 45 46 47 48 49 50
000
ASUS43 KOAX 282010
RWRNE

WEATHER ROUNDUP FOR NEBRASKA
NATIONAL WEATHER SERVICE OMAHA NE
300 PM CDT TUE MAR 28 2017

NOTES: SATELLITE DATA IS BEING USED TO AUGMENT CLOUD COVER ABOVE
       12000 FEET.
       "FAIR" INDICATES FEW OR NO CLOUDS BELOW 12,000 FEET WITH NO
       SIGNIFICANT WEATHER AND/OR OBSTRUCTIONS TO VISIBILITY.

  * THESE STATIONS DO NOT REPORT WEATHER SUCH AS RAIN...SNOW OR FOG.

NEZ001>004-019>022-054>056-282100-
NEBRASKA PANHANDLE

CITY           SKY/WX    TMP DP  RH WIND       PRES   REMARKS
SCOTTSBLUFF    LGT RAIN  45  43  93 E10       29.95R FOG
ALLIANCE       LGT RAIN  43  41  93 E17       29.95S FOG
CHADRON        LGT RAIN  45  42  89 E10       30.00F
KIMBALL        LGT RAIN  44  44 100 E13       29.91S
SIDNEY         LGT RAIN  43  41  93 E17       29.93R FOG
$$

NEZ057>060-069>072-079>082-282100-
SOUTHWEST NEBRASKA

CITY           SKY/WX    TMP DP  RH WIND       PRES   REMARKS
NORTH PLATTE   RAIN      46  44  93 E7        30.01S FOG
IMPERIAL       RAIN      44  42  93 E17       29.95S FOG
LEXINGTON      CLOUDY    51  42  72 E13       29.99F
MCCOOK         LGT RAIN  47  46  97 SE8       30.00R FOG
OGALLALA       LGT RAIN  46  44  94 E17G24    29.96S
$$

NEZ005>010-023>029-035>040-094-282100-
NORTH CENTRAL NEBRASKA

CITY           SKY/WX    TMP DP  RH WIND       PRES   REMARKS
VALENTINE      CLOUDY    48  43  82 E7        30.05F
AINSWORTH      CLOUDY    49  42  75 E9        30.05S
BROKEN BOW     CLOUDY    51  40  65 E12       30.02S
O`NEILL        PTSUNNY   54  40  59 E13       30.06F
ORD            CLOUDY    50  38  63 E10       30.03F
THEDFORD       RAIN      46  42  85 E8        30.03F
$$

NEZ041-046>049-061>064-073>077-083>087-282100-
SOUTH CENTRAL NEBRASKA

CITY           SKY/WX    TMP DP  RH WIND       PRES   REMARKS
GRAND ISLAND   CLOUDY    50  41  71 E15       30.04F
AURORA         CLOUDY    49  42  77 E13       30.05S
HASTINGS       CLOUDY    51  41  68 E16       30.03S
HEBRON         CLOUDY    52  41  66 E14G20    30.02F
HOLDREGE       CLOUDY    53  40  63 E15G21    29.98F
KEARNEY *      CLOUDY    54  39  58 E17       30.02S
YORK           CLOUDY    48  41  76 E14       30.05S
$$

NEZ011>018-030>034-042>045-282100-
NORTHEAST NEBRASKA

CITY           SKY/WX    TMP DP  RH WIND       PRES   REMARKS
NORFOLK        MOSUNNY   56  40  55 E16       30.05F
ALBION         CLOUDY    53  41  64 E10G16    30.05F
BLAIR          CLOUDY    49  43  78 E8        30.08S
FREMONT        CLOUDY    49  41  74 E10       30.09S
TEKAMAH        CLOUDY    54  42  64 E9        30.08F
WAYNE          CLOUDY    57  42  58 SE5       30.07F
$$

NEZ050>053-065>068-078-088>093-282100-
SOUTHEAST NEBRASKA

CITY           SKY/WX    TMP DP  RH WIND       PRES   REMARKS
LINCOLN        CLOUDY    50  41  71 E14       30.08S
OMAHA EPPLEY   CLOUDY    50  41  71 E12       30.09F
BEATRICE       CLOUDY    51  42  72 E8        30.06R
FALLS CITY     CLOUDY    53  45  74 E12       30.04F
NEBRASKA CITY  CLOUDY    52  38  60 E9        30.06F
PLATTSMOUTH    CLOUDY    51  38  61 E10       30.07F
$$

NEZ044-045-051>053-067-282100-
OMAHA AREA

CITY           SKY/WX    TMP DP  RH WIND       PRES   REMARKS
OMAHA EPPLEY   CLOUDY    50  41  71 E12       30.09F
BLAIR          CLOUDY    49  43  78 E8        30.08S
FREMONT        CLOUDY    49  41  74 E10       30.09S
MILLARD        CLOUDY    50  43  77 E5        30.09S
OFFUTT AFB     CLOUDY    50  41  71 NE12      30.07F
PLATTSMOUTH    CLOUDY    51  38  61 E10       30.07F
WAHOO          CLOUDY    48  42  77 E9        30.08S
$$




USA.gov is the U.S. government's official web portal to all federal, state and local government web resources and services.